This is the latest recevied weather packets stored in our database for station/object KF7SOJ. If no packets are shown the sender has not sent any weather packets the latest 10 day(s).
| Time | Temp. | Humidity | Pressure | Rain* | Wind** | Luminosity | Snow |
|---|---|---|---|---|---|---|---|
| 1788619862 | 20° C | 37% | 934.7 hPa | 0 mm | - | 147 W/m² | - |
| 1788619557 | 20° C | 37% | 934.3 hPa | 0 mm | - | 147 W/m² | - |
| 1788619256 | 20° C | 37% | 934.6 hPa | 0 mm | - | 147 W/m² | - |
| 1788618955 | 18.89° C | 40% | 934.4 hPa | 0 mm | - | 182 W/m² | - |
| 1788618651 | 18.89° C | 40% | 934.3 hPa | 0 mm | - | 182 W/m² | - |
| 1788618350 | 17.78° C | 42% | 934.2 hPa | 0 mm | - | 234 W/m² | - |
| 1788618050 | 17.22° C | 43% | 934.2 hPa | 0 mm | - | 207 W/m² | - |
| 1788617744 | 17.22° C | 46% | 934.1 hPa | 0 mm | - | 144 W/m² | - |
| 1788617442 | 17.22° C | 43% | 934.1 hPa | 0 mm | - | 56 W/m² | - |
| 1788617142 | 17.22° C | 43% | 934.2 hPa | 0 mm | - | 53 W/m² | - |
| 1788616840 | 17.22° C | 44% | 934 hPa | 0 mm | - | 46 W/m² | - |
| 1788616537 | 17.22° C | 44% | 933.9 hPa | 0 mm | - | 48 W/m² | - |
| 1788616237 | 17.78° C | 42% | 933.8 hPa | 0 mm | - | 49 W/m² | - |
| 1788615937 | 17.78° C | 43% | 933.8 hPa | 0 mm | - | 71 W/m² | - |
| 1788615668 | 16.67° C | 44% | 933.8 hPa | 0 mm | - | 73 W/m² | - |
| 1788615331 | 16.67° C | 45% | 933.7 hPa | 0 mm | - | 46 W/m² | - |
| 1788615031 | 16.67° C | 46% | 933.5 hPa | 0 mm | - | 49 W/m² | - |
| 1788614730 | 16.11° C | 46% | 933.5 hPa | 0 mm | - | 22 W/m² | - |
| 1788614425 | 16.11° C | 46% | 933.4 hPa | 0 mm | - | 22 W/m² | - |
| 1788614121 | 16.11° C | 46% | 932.8 hPa | 0 mm | - | 22 W/m² | - |
| 1788613816 | 16.11° C | 46% | 933 hPa | 0 mm | - | 22 W/m² | - |
| 1788613515 | 16.11° C | 46% | 933.1 hPa | 0 mm | - | 22 W/m² | - |
| 1788613211 | 16.11° C | 46% | 932.9 hPa | 0 mm | - | 22 W/m² | - |
| 1788612905 | 15° C | 50% | 932.4 hPa | 0 mm | - | 3 W/m² | - |
| 1788612601 | 15° C | 50% | 932.7 hPa | 0 mm | - | 3 W/m² | - |
* Rain latest hour (hover to see other rain measurements)
** Current wind speed in m/s (hover to see current wind gust speed)